Time,TemperatureF,DewpointF,PressureIn,WindDirection,WindDirectionDegrees,WindSpeedMPH,WindSpeedGustMPH,Humidity,HourlyPrecipIn,Conditions,Clouds,dailyrainin,SoftwareType,DateUTC
2013-06-13 00:00:00,81.7,70.1,29.94,SSE,162,6.0,6.0,68,0.00,,,0.00,Wunderground v.1.15,2013-06-13 05:00:00,
2013-06-13 00:05:00,81.6,70.0,29.94,South,191,5.0,6.0,68,0.00,,,0.00,Wunderground v.1.15,2013-06-13 05:05:00,
2013-06-13 00:15:00,81.3,70.2,29.94,South,173,5.0,6.0,69,0.00,,,0.00,Wunderground v.1.15,2013-06-13 05:15:00,
2013-06-13 00:20:00,81.2,70.1,29.94,South,182,5.0,6.0,69,0.00,,,0.00,Wunderground v.1.15,2013-06-13 05:20:00,
2013-06-13 00:30:00,80.7,70.0,29.94,South,179,5.0,5.0,70,0.00,,,0.00,Wunderground v.1.15,2013-06-13 05:30:00,
2013-06-13 00:40:00,80.5,69.8,29.94,South,183,4.0,5.0,70,0.00,,,0.00,Wunderground v.1.15,2013-06-13 05:40:00,
2013-06-13 00:50:00,80.2,69.9,29.94,South,184,4.0,6.0,71,0.00,,,0.00,Wunderground v.1.15,2013-06-13 05:50:00,
2013-06-13 00:55:00,80.0,69.7,29.94,SSE,168,4.0,6.0,71,0.00,,,0.00,Wunderground v.1.15,2013-06-13 05:55:00,
2013-06-13 01:00:00,79.9,69.7,29.94,South,175,3.0,4.0,71,0.00,,,0.00,Wunderground v.1.15,2013-06-13 06:00:00,
2013-06-13 01:10:00,79.5,69.7,29.94,South,175,2.0,3.0,72,0.00,,,0.00,Wunderground v.1.15,2013-06-13 06:10:00,
2013-06-13 01:20:00,79.2,69.8,29.94,South,175,2.0,3.0,73,0.00,,,0.00,Wunderground v.1.15,2013-06-13 06:20:00,
2013-06-13 01:25:00,79.1,69.7,29.94,South,175,2.0,3.0,73,0.00,,,0.00,Wunderground v.1.15,2013-06-13 06:25:00,
2013-06-13 01:30:00,78.9,69.5,29.94,South,175,2.0,2.0,73,0.00,,,0.00,Wunderground v.1.15,2013-06-13 06:30:00,
2013-06-13 01:40:00,78.7,69.3,29.94,South,175,2.0,3.0,73,0.00,,,0.00,Wunderground v.1.15,2013-06-13 06:40:00,
2013-06-13 01:50:00,78.6,69.2,29.94,South,179,3.0,5.0,73,0.00,,,0.00,Wunderground v.1.15,2013-06-13 06:50:00,
2013-06-13 01:55:00,78.5,69.5,29.93,South,180,3.0,5.0,74,0.00,,,0.00,Wunderground v.1.15,2013-06-13 06:55:00,
2013-06-13 02:00:00,78.4,69.4,29.94,South,182,3.0,3.0,74,0.00,,,0.00,Wunderground v.1.15,2013-06-13 07:00:00,
2013-06-13 02:05:00,78.4,69.4,29.94,South,182,3.0,3.0,74,0.00,,,0.00,Wunderground v.1.15,2013-06-13 07:05:00,
2013-06-13 02:10:00,78.4,69.4,29.94,South,180,2.0,4.0,74,0.00,,,0.00,Wunderground v.1.15,2013-06-13 07:10:00,
2013-06-13 02:15:00,78.3,69.3,29.94,South,180,2.0,4.0,74,0.00,,,0.00,Wunderground v.1.15,2013-06-13 07:15:00,
2013-06-13 02:20:00,78.2,69.2,29.93,South,188,3.0,5.0,74,0.00,,,0.00,Wunderground v.1.15,2013-06-13 07:20:00,
2013-06-13 02:25:00,78.0,69.4,29.93,South,178,4.0,6.0,75,0.00,,,0.00,Wunderground v.1.15,2013-06-13 07:25:00,
2013-06-13 02:30:00,77.9,69.3,29.93,South,184,5.0,6.0,75,0.00,,,0.00,Wunderground v.1.15,2013-06-13 07:30:00,
2013-06-13 02:35:00,77.8,69.2,29.93,SSW,200,5.0,6.0,75,0.00,,,0.00,Wunderground v.1.15,2013-06-13 07:35:00,
2013-06-13 02:40:00,77.8,69.2,29.93,SSW,194,4.0,4.0,75,0.00,,,0.00,Wunderground v.1.15,2013-06-13 07:40:00,
2013-06-13 02:45:00,77.8,68.8,29.93,SSW,196,3.0,4.0,74,0.00,,,0.00,Wunderground v.1.15,2013-06-13 07:45:00,
2013-06-13 02:55:00,78.0,69.0,29.93,SSW,198,1.0,4.0,74,0.00,,,0.00,Wunderground v.1.15,2013-06-13 07:55:00,
2013-06-13 03:00:00,77.9,68.9,29.93,South,188,2.0,4.0,74,0.00,,,0.00,Wunderground v.1.15,2013-06-13 08:00:00,
2013-06-13 03:05:00,77.8,68.8,29.93,South,184,4.0,4.0,74,0.00,,,0.00,Wunderground v.1.15,2013-06-13 08:05:00,
2013-06-13 03:10:00,77.5,68.9,29.93,South,178,5.0,6.0,75,0.00,,,0.00,Wunderground v.1.15,2013-06-13 08:10:00,
2013-06-13 03:15:00,77.3,68.8,29.93,SSW,205,5.0,6.0,75,0.00,,,0.00,Wunderground v.1.15,2013-06-13 08:15:00,
2013-06-13 03:20:00,77.3,68.8,29.93,SSW,209,4.0,7.0,75,0.00,,,0.00,Wunderground v.1.15,2013-06-13 08:20:00,
2013-06-13 03:25:00,77.3,68.8,29.93,SSW,206,4.0,7.0,75,0.00,,,0.00,Wunderground v.1.15,2013-06-13 08:25:00,
2013-06-13 03:30:00,77.3,69.1,29.93,SSW,208,4.0,4.0,76,0.00,,,0.00,Wunderground v.1.15,2013-06-13 08:30:00,
2013-06-13 03:35:00,77.3,69.1,29.93,SSW,203,4.0,4.0,76,0.00,,,0.00,Wunderground v.1.15,2013-06-13 08:35:00,
2013-06-13 03:40:00,77.3,69.1,29.94,SSW,204,4.0,4.0,76,0.00,,,0.00,Wunderground v.1.15,2013-06-13 08:40:00,
2013-06-13 03:50:00,77.1,68.9,29.93,SSW,206,4.0,4.0,76,0.00,,,0.00,Wunderground v.1.15,2013-06-13 08:50:00,
2013-06-13 03:55:00,77.0,68.9,29.93,SSW,202,5.0,5.0,76,0.00,,,0.00,Wunderground v.1.15,2013-06-13 08:55:00,
2013-06-13 04:05:00,76.7,68.9,29.93,SSW,209,5.0,7.0,77,0.00,,,0.00,Wunderground v.1.15,2013-06-13 09:05:00,
2013-06-13 04:10:00,76.5,68.7,29.93,SSW,197,5.0,5.0,77,0.00,,,0.00,Wunderground v.1.15,2013-06-13 09:10:00,
2013-06-13 04:15:00,76.4,69.0,29.93,SSW,203,4.0,5.0,78,0.00,,,0.00,Wunderground v.1.15,2013-06-13 09:15:00,
2013-06-13 04:20:00,76.3,68.9,29.94,SSW,207,4.0,4.0,78,0.00,,,0.00,Wunderground v.1.15,2013-06-13 09:20:00,
2013-06-13 04:25:00,76.4,69.0,29.94,SSW,200,3.0,4.0,78,0.00,,,0.00,Wunderground v.1.15,2013-06-13 09:25:00,
2013-06-13 04:30:00,76.3,68.9,29.94,SSW,200,3.0,3.0,78,0.00,,,0.00,Wunderground v.1.15,2013-06-13 09:30:00,
2013-06-13 04:35:00,76.2,68.8,29.94,SSW,200,2.0,3.0,78,0.00,,,0.00,Wunderground v.1.15,2013-06-13 09:35:00,
2013-06-13 04:40:00,76.2,68.8,29.94,SSW,204,2.0,2.0,78,0.00,,,0.00,Wunderground v.1.15,2013-06-13 09:40:00,
2013-06-13 04:45:00,76.3,68.9,29.94,SSW,198,2.0,3.0,78,0.00,,,0.00,Wunderground v.1.15,2013-06-13 09:45:00,
2013-06-13 04:50:00,76.2,68.8,29.94,SSW,207,3.0,4.0,78,0.00,,,0.00,Wunderground v.1.15,2013-06-13 09:50:00,
2013-06-13 05:00:00,75.9,68.9,29.95,SSW,200,3.0,3.0,79,0.00,,,0.00,Wunderground v.1.15,2013-06-13 10:00:00,
2013-06-13 05:10:00,75.8,68.8,29.95,SSW,201,3.0,3.0,79,0.00,,,0.00,Wunderground v.1.15,2013-06-13 10:10:00,
2013-06-13 05:15:00,75.7,68.7,29.95,SSW,206,3.0,3.0,79,0.00,,,0.00,Wunderground v.1.15,2013-06-13 10:15:00,
2013-06-13 05:25:00,75.6,69.0,29.95,SSW,195,4.0,4.0,80,0.00,,,0.00,Wunderground v.1.15,2013-06-13 10:25:00,
2013-06-13 05:30:00,75.5,68.9,29.95,SSW,209,3.0,3.0,80,0.00,,,0.00,Wunderground v.1.15,2013-06-13 10:30:00,
2013-06-13 05:40:00,75.4,68.8,29.96,SSW,205,2.0,3.0,80,0.00,,,0.00,Wunderground v.1.15,2013-06-13 10:40:00,
2013-06-13 05:45:00,75.3,68.7,29.96,SSW,205,2.0,3.0,80,0.00,,,0.00,Wunderground v.1.15,2013-06-13 10:45:00,
2013-06-13 05:50:00,75.2,68.6,29.96,SSW,207,3.0,4.0,80,0.00,,,0.00,Wunderground v.1.15,2013-06-13 10:50:00,
2013-06-13 05:55:00,75.1,68.9,29.96,SSW,203,3.0,4.0,81,0.00,,,0.00,Wunderground v.1.15,2013-06-13 10:55:00,
2013-06-13 06:00:00,75.1,68.9,29.96,SSW,203,2.0,5.0,81,0.00,,,0.00,Wunderground v.1.15,2013-06-13 11:00:00,
2013-06-13 06:05:00,75.0,68.8,29.96,SSW,200,3.0,5.0,81,0.00,,,0.00,Wunderground v.1.15,2013-06-13 11:05:00,
2013-06-13 06:15:00,74.6,68.7,29.96,SSW,207,2.0,3.0,82,0.00,,,0.00,Wunderground v.1.15,2013-06-13 11:15:00,
2013-06-13 06:20:00,74.6,68.7,29.97,SSW,205,2.0,5.0,82,0.00,,,0.00,Wunderground v.1.15,2013-06-13 11:20:00,
2013-06-13 06:30:00,74.4,68.5,29.97,SSW,193,4.0,5.0,82,0.00,,,0.00,Wunderground v.1.15,2013-06-13 11:30:00,
2013-06-13 06:35:00,74.3,68.4,29.97,SSW,206,3.0,5.0,82,0.00,,,0.00,Wunderground v.1.15,2013-06-13 11:35:00,
2013-06-13 06:40:00,74.4,68.5,29.97,SSW,203,3.0,3.0,82,0.00,,,0.00,Wunderground v.1.15,2013-06-13 11:40:00,
2013-06-13 06:45:00,74.5,68.6,29.97,SSW,195,3.0,5.0,82,0.00,,,0.00,Wunderground v.1.15,2013-06-13 11:45:00,
2013-06-13 06:55:00,74.5,68.6,29.97,SSW,207,3.0,4.0,82,0.00,,,0.00,Wunderground v.1.15,2013-06-13 11:55:00,
2013-06-13 07:00:00,74.6,68.7,29.98,SSW,207,2.0,2.0,82,0.00,,,0.00,Wunderground v.1.15,2013-06-13 12:00:00,
2013-06-13 07:10:00,74.9,69.0,29.98,SW,217,2.0,3.0,82,0.00,,,0.00,Wunderground v.1.15,2013-06-13 12:10:00,
2013-06-13 07:20:00,75.4,69.5,29.98,SW,216,2.0,2.0,82,0.00,,,0.00,Wunderground v.1.15,2013-06-13 12:20:00,
2013-06-13 07:25:00,75.6,69.7,29.98,SW,215,2.0,2.0,82,0.00,,,0.00,Wunderground v.1.15,2013-06-13 12:25:00,
2013-06-13 07:30:00,75.9,69.6,29.99,SW,214,2.0,2.0,81,0.00,,,0.00,Wunderground v.1.15,2013-06-13 12:30:00,
2013-06-13 07:35:00,76.3,69.7,29.98,SSW,205,2.0,4.0,80,0.00,,,0.00,Wunderground v.1.15,2013-06-13 12:35:00,
2013-06-13 07:45:00,76.8,69.8,29.99,SW,216,3.0,5.0,79,0.00,,,0.00,Wunderground v.1.15,2013-06-13 12:45:00,
2013-06-13 07:50:00,76.9,69.9,29.99,SW,229,3.0,3.0,79,0.00,,,0.00,Wunderground v.1.15,2013-06-13 12:50:00,
2013-06-13 07:55:00,77.3,70.3,29.99,SSW,194,3.0,6.0,79,0.00,,,0.00,Wunderground v.1.15,2013-06-13 12:55:00,
2013-06-13 08:05:00,77.7,70.3,29.99,SSW,206,4.0,5.0,78,0.00,,,0.00,Wunderground v.1.15,2013-06-13 13:05:00,
2013-06-13 08:15:00,78.3,70.9,29.99,SSW,194,4.0,5.0,78,0.00,,,0.00,Wunderground v.1.15,2013-06-13 13:15:00,
2013-06-13 08:25:00,78.8,71.0,29.99,SSW,196,4.0,5.0,77,0.00,,,0.00,Wunderground v.1.15,2013-06-13 13:25:00,
2013-06-13 08:30:00,79.2,71.4,29.99,SSW,195,4.0,7.0,77,0.00,,,0.00,Wunderground v.1.15,2013-06-13 13:30:00,
2013-06-13 08:35:00,79.4,71.2,29.99,SW,234,4.0,7.0,76,0.00,,,0.00,Wunderground v.1.15,2013-06-13 13:35:00,
2013-06-13 08:45:00,80.2,71.6,30.00,SW,215,4.0,4.0,75,0.00,,,0.00,Wunderground v.1.15,2013-06-13 13:45:00,
2013-06-13 08:50:00,80.7,71.6,30.00,SSE,163,4.0,4.0,74,0.00,,,0.00,Wunderground v.1.15,2013-06-13 13:50:00,
2013-06-13 09:00:00,81.0,71.5,30.00,SSW,208,5.0,5.0,73,0.00,,,0.00,Wunderground v.1.15,2013-06-13 14:00:00,
2013-06-13 09:05:00,81.2,71.3,30.00,SSW,207,6.0,6.0,72,0.00,,,0.00,Wunderground v.1.15,2013-06-13 14:05:00,
2013-06-13 09:15:00,82.0,71.7,30.01,SSW,213,4.0,6.0,71,0.00,,,0.00,Wunderground v.1.15,2013-06-13 14:15:00,
2013-06-13 09:25:00,82.8,71.6,30.01,SW,221,3.0,6.0,69,0.00,,,0.00,Wunderground v.1.15,2013-06-13 14:25:00,
2013-06-13 09:30:00,82.9,71.3,30.01,SSW,210,4.0,6.0,68,0.00,,,0.00,Wunderground v.1.15,2013-06-13 14:30:00,
2013-06-13 09:40:00,83.2,71.5,30.01,SW,232,4.0,9.0,68,0.00,,,0.00,Wunderground v.1.15,2013-06-13 14:40:00,
2013-06-13 09:45:00,83.2,72.0,30.01,WNW,290,5.0,9.0,69,0.00,,,0.00,Wunderground v.1.15,2013-06-13 14:45:00,
2013-06-13 09:55:00,83.4,71.7,30.01,SSW,200,5.0,5.0,68,0.00,,,0.00,Wunderground v.1.15,2013-06-13 14:55:00,
2013-06-13 10:00:00,83.5,71.8,30.01,SW,230,5.0,5.0,68,0.00,,,0.00,Wunderground v.1.15,2013-06-13 15:00:00,
2013-06-13 10:05:00,84.1,72.4,30.01,WSW,252,4.0,5.0,68,0.00,,,0.00,Wunderground v.1.15,2013-06-13 15:05:00,
2013-06-13 10:10:00,84.6,72.4,30.00,SW,227,3.0,6.0,67,0.00,,,0.00,Wunderground v.1.15,2013-06-13 15:10:00,
2013-06-13 10:20:00,84.8,72.2,30.01,SW,233,5.0,5.0,66,0.00,,,0.00,Wunderground v.1.15,2013-06-13 15:20:00,
2013-06-13 10:30:00,85.2,72.6,30.00,SW,230,5.0,6.0,66,0.00,,,0.00,Wunderground v.1.15,2013-06-13 15:30:00,
2013-06-13 10:35:00,85.4,72.3,30.00,SW,227,6.0,6.0,65,0.00,,,0.00,Wunderground v.1.15,2013-06-13 15:35:00,
2013-06-13 10:40:00,85.6,72.5,30.00,WSW,246,5.0,5.0,65,0.00,,,0.00,Wunderground v.1.15,2013-06-13 15:40:00,
2013-06-13 10:45:00,85.7,72.6,30.00,WSW,253,5.0,5.0,65,0.00,,,0.00,Wunderground v.1.15,2013-06-13 15:45:00,
2013-06-13 10:50:00,85.7,72.6,30.00,SW,217,5.0,8.0,65,0.00,,,0.00,Wunderground v.1.15,2013-06-13 15:50:00,
2013-06-13 11:00:00,86.5,72.4,30.00,WSW,257,4.0,4.0,63,0.00,,,0.00,Wunderground v.1.15,2013-06-13 16:00:00,
2013-06-13 11:10:00,87.0,72.9,30.00,WSW,237,4.0,4.0,63,0.00,,,0.00,Wunderground v.1.15,2013-06-13 16:10:00,
2013-06-13 11:15:00,87.2,72.6,30.00,WSW,250,4.0,4.0,62,0.00,,,0.00,Wunderground v.1.15,2013-06-13 16:15:00,
2013-06-13 11:20:00,87.6,73.0,30.00,SW,236,3.0,5.0,62,0.00,,,0.00,Wunderground v.1.15,2013-06-13 16:20:00,
2013-06-13 11:30:00,87.9,72.8,30.00,SW,224,4.0,6.0,61,0.00,,,0.00,Wunderground v.1.15,2013-06-13 16:30:00,
2013-06-13 11:35:00,87.9,72.8,30.00,SSW,211,4.0,6.0,61,0.00,,,0.00,Wunderground v.1.15,2013-06-13 16:35:00,
2013-06-13 11:40:00,87.7,73.1,30.00,SW,223,5.0,7.0,62,0.00,,,0.00,Wunderground v.1.15,2013-06-13 16:40:00,
2013-06-13 11:45:00,87.9,72.8,30.00,SW,228,5.0,7.0,61,0.00,,,0.00,Wunderground v.1.15,2013-06-13 16:45:00,
2013-06-13 11:55:00,89.0,73.3,29.99,SSW,202,4.0,9.0,60,0.00,,,0.00,Wunderground v.1.15,2013-06-13 16:55:00,
2013-06-13 12:00:00,88.8,73.1,29.99,SW,217,6.0,6.0,60,0.00,,,0.00,Wunderground v.1.15,2013-06-13 17:00:00,
2013-06-13 12:05:00,88.5,72.8,29.99,SW,221,7.0,9.0,60,0.00,,,0.00,Wunderground v.1.15,2013-06-13 17:05:00,
2013-06-13 12:15:00,88.9,73.2,29.99,SSW,201,5.0,6.0,60,0.00,,,0.00,Wunderground v.1.15,2013-06-13 17:15:00,
2013-06-13 12:20:00,89.0,73.3,29.99,SW,224,5.0,5.0,60,0.00,,,0.00,Wunderground v.1.15,2013-06-13 17:20:00,
2013-06-13 12:30:00,89.8,73.0,29.99,SW,219,4.0,4.0,58,0.00,,,0.00,Wunderground v.1.15,2013-06-13 17:30:00,
2013-06-13 12:35:00,89.8,74.1,29.99,SSW,213,4.0,4.0,60,0.00,,,0.00,Wunderground v.1.15,2013-06-13 17:35:00,
2013-06-13 12:40:00,90.0,73.2,29.99,WSW,242,4.0,4.0,58,0.00,,,0.00,Wunderground v.1.15,2013-06-13 17:40:00,
2013-06-13 12:45:00,90.2,73.9,29.99,SW,227,4.0,4.0,59,0.00,,,0.00,Wunderground v.1.15,2013-06-13 17:45:00,
2013-06-13 12:55:00,90.8,72.9,29.98,SW,221,3.0,4.0,56,0.00,,,0.00,Wunderground v.1.15,2013-06-13 17:55:00,
2013-06-13 13:00:00,91.0,73.7,29.98,SW,215,3.0,5.0,57,0.00,,,0.00,Wunderground v.1.15,2013-06-13 18:00:00,
2013-06-13 13:10:00,90.7,72.3,29.98,SSW,212,4.0,6.0,55,0.00,,,0.00,Wunderground v.1.15,2013-06-13 18:10:00,
2013-06-13 13:15:00,91.0,72.0,29.98,South,176,6.0,6.0,54,0.00,,,0.00,Wunderground v.1.15,2013-06-13 18:15:00,
2013-06-13 13:25:00,91.3,72.9,29.98,SSW,195,4.0,5.0,55,0.00,,,0.00,Wunderground v.1.15,2013-06-13 18:25:00,
2013-06-13 13:35:00,92.8,73.2,29.97,SW,215,2.0,2.0,53,0.00,,,0.00,Wunderground v.1.15,2013-06-13 18:35:00,
2013-06-13 13:40:00,92.6,74.1,29.97,SW,232,3.0,3.0,55,0.00,,,0.00,Wunderground v.1.15,2013-06-13 18:40:00,
2013-06-13 13:45:00,92.5,73.4,29.97,WSW,244,4.0,8.0,54,0.00,,,0.00,Wunderground v.1.15,2013-06-13 18:45:00,
2013-06-13 13:50:00,91.9,73.4,29.97,SW,222,5.0,8.0,55,0.00,,,0.00,Wunderground v.1.15,2013-06-13 18:50:00,
2013-06-13 13:55:00,92.0,73.5,29.96,South,178,5.0,8.0,55,0.00,,,0.00,Wunderground v.1.15,2013-06-13 18:55:00,
2013-06-13 14:00:00,91.8,72.2,29.96,South,170,5.0,5.0,53,0.00,,,0.00,Wunderground v.1.15,2013-06-13 19:00:00,
2013-06-13 14:05:00,92.1,72.5,29.96,South,188,5.0,5.0,53,0.00,,,0.00,Wunderground v.1.15,2013-06-13 19:05:00,
2013-06-13 14:15:00,92.0,73.0,29.96,SSW,211,4.0,7.0,54,0.00,,,0.00,Wunderground v.1.15,2013-06-13 19:15:00,
2013-06-13 14:25:00,92.4,72.8,29.95,South,179,3.0,4.0,53,0.00,,,0.00,Wunderground v.1.15,2013-06-13 19:25:00,
2013-06-13 14:30:00,92.4,73.3,29.95,South,182,3.0,7.0,54,0.00,,,0.00,Wunderground v.1.15,2013-06-13 19:30:00,
2013-06-13 14:35:00,92.7,73.1,29.95,SW,219,4.0,7.0,53,0.00,,,0.00,Wunderground v.1.15,2013-06-13 19:35:00,
2013-06-13 14:40:00,92.7,72.5,29.95,SW,225,6.0,6.0,52,0.00,,,0.00,Wunderground v.1.15,2013-06-13 19:40:00,
2013-06-13 14:45:00,92.6,71.8,29.95,SSE,168,5.0,6.0,51,0.00,,,0.00,Wunderground v.1.15,2013-06-13 19:45:00,
2013-06-13 14:50:00,92.8,71.4,29.95,SW,229,3.0,3.0,50,0.00,,,0.00,Wunderground v.1.15,2013-06-13 19:50:00,
2013-06-13 15:00:00,93.5,72.1,29.94,SSW,192,3.0,3.0,50,0.00,,,0.00,Wunderground v.1.15,2013-06-13 20:00:00,
2013-06-13 15:05:00,93.4,72.0,29.94,WSW,238,3.0,3.0,50,0.00,,,0.00,Wunderground v.1.15,2013-06-13 20:05:00,
2013-06-13 15:10:00,93.7,72.3,29.94,SW,216,3.0,3.0,50,0.00,,,0.00,Wunderground v.1.15,2013-06-13 20:10:00,
2013-06-13 15:20:00,94.4,71.1,29.93,SSE,160,3.0,5.0,47,0.00,,,0.00,Wunderground v.1.15,2013-06-13 20:20:00,
2013-06-13 15:25:00,93.4,71.4,29.93,South,183,3.0,5.0,49,0.00,,,0.00,Wunderground v.1.15,2013-06-13 20:25:00,
2013-06-13 15:35:00,93.4,72.6,29.92,SSE,154,3.0,5.0,51,0.00,,,0.00,Wunderground v.1.15,2013-06-13 20:35:00,
2013-06-13 15:45:00,93.3,73.0,29.92,South,171,4.0,7.0,52,0.00,,,0.00,Wunderground v.1.15,2013-06-13 20:45:00,
2013-06-13 15:50:00,92.7,73.1,29.92,ENE,75,4.0,4.0,53,0.00,,,0.00,Wunderground v.1.15,2013-06-13 20:50:00,
2013-06-13 15:55:00,92.8,73.2,29.92,SSE,163,4.0,6.0,53,0.00,,,0.00,Wunderground v.1.15,2013-06-13 20:55:00,
2013-06-13 16:05:00,93.7,72.8,29.92,SW,218,3.0,5.0,51,0.00,,,0.00,Wunderground v.1.15,2013-06-13 21:05:00,
2013-06-13 16:15:00,94.2,72.1,29.91,SSE,162,2.0,5.0,49,0.00,,,0.00,Wunderground v.1.15,2013-06-13 21:15:00,
2013-06-13 16:20:00,93.8,72.3,29.91,South,190,4.0,4.0,50,0.00,,,0.00,Wunderground v.1.15,2013-06-13 21:20:00,
2013-06-13 16:30:00,94.2,72.1,29.90,SW,217,4.0,4.0,49,0.00,,,0.00,Wunderground v.1.15,2013-06-13 21:30:00,
2013-06-13 16:40:00,93.9,71.8,29.90,East,85,3.0,3.0,49,0.00,,,0.00,Wunderground v.1.15,2013-06-13 21:40:00,
2013-06-13 16:45:00,93.8,71.7,29.90,SSE,148,4.0,5.0,49,0.00,,,0.00,Wunderground v.1.15,2013-06-13 21:45:00,
2013-06-13 16:50:00,93.3,71.9,29.90,South,186,5.0,5.0,50,0.00,,,0.00,Wunderground v.1.15,2013-06-13 21:50:00,
2013-06-13 16:55:00,93.4,72.6,29.89,SSE,150,4.0,7.0,51,0.00,,,0.00,Wunderground v.1.15,2013-06-13 21:55:00,
2013-06-13 17:00:00,93.8,71.7,29.90,SSE,158,4.0,5.0,49,0.00,,,0.00,Wunderground v.1.15,2013-06-13 22:00:00,
2013-06-13 17:10:00,93.5,72.1,29.89,SE,125,4.0,6.0,50,0.00,,,0.00,Wunderground v.1.15,2013-06-13 22:10:00,
2013-06-13 17:15:00,93.3,71.9,29.89,SSW,194,4.0,7.0,50,0.00,,,0.00,Wunderground v.1.15,2013-06-13 22:15:00,
2013-06-13 17:25:00,93.2,71.2,29.89,SSE,157,4.0,9.0,49,0.00,,,0.00,Wunderground v.1.15,2013-06-13 22:25:00,
2013-06-13 17:30:00,92.9,71.5,29.89,SE,135,5.0,5.0,50,0.00,,,0.00,Wunderground v.1.15,2013-06-13 22:30:00,
2013-06-13 17:35:00,93.3,71.9,29.88,ENE,71,4.0,5.0,50,0.00,,,0.00,Wunderground v.1.15,2013-06-13 22:35:00,
2013-06-13 17:45:00,93.2,71.8,29.88,SSE,167,4.0,5.0,50,0.00,,,0.00,Wunderground v.1.15,2013-06-13 22:45:00,
2013-06-13 17:55:00,93.1,71.1,29.88,SSE,161,4.0,5.0,49,0.00,,,0.00,Wunderground v.1.15,2013-06-13 22:55:00,
2013-06-13 18:00:00,93.0,71.0,29.88,SSE,159,5.0,6.0,49,0.00,,,0.00,Wunderground v.1.15,2013-06-13 23:00:00,
2013-06-13 18:05:00,92.8,70.8,29.87,ESE,103,5.0,6.0,49,0.00,,,0.00,Wunderground v.1.15,2013-06-13 23:05:00,
2013-06-13 18:15:00,92.6,71.2,29.87,SSE,167,4.0,4.0,50,0.00,,,0.00,Wunderground v.1.15,2013-06-13 23:15:00,
2013-06-13 18:20:00,92.8,72.0,29.87,SE,132,4.0,6.0,51,0.00,,,0.00,Wunderground v.1.15,2013-06-13 23:20:00,
2013-06-13 18:25:00,92.7,71.9,29.87,SSE,163,5.0,6.0,51,0.00,,,0.00,Wunderground v.1.15,2013-06-13 23:25:00,
2013-06-13 18:35:00,92.4,72.2,29.87,SE,134,5.0,7.0,52,0.00,,,0.00,Wunderground v.1.15,2013-06-13 23:35:00,
2013-06-13 18:40:00,92.2,72.6,29.87,SE,146,4.0,5.0,53,0.00,,,0.00,Wunderground v.1.15,2013-06-13 23:40:00,
2013-06-13 18:50:00,92.3,72.7,29.86,SE,138,5.0,5.0,53,0.00,,,0.00,Wunderground v.1.15,2013-06-13 23:50:00,
2013-06-13 18:55:00,92.2,72.6,29.86,SE,126,5.0,5.0,53,0.00,,,0.00,Wunderground v.1.15,2013-06-13 23:55:00,
2013-06-13 19:00:00,92.2,72.6,29.86,SSE,165,5.0,5.0,53,0.00,,,0.00,Wunderground v.1.15,2013-06-14 00:00:00,
2013-06-13 19:05:00,92.2,73.2,29.87,SE,137,4.0,5.0,54,0.00,,,0.00,Wunderground v.1.15,2013-06-14 00:05:00,
2013-06-13 19:10:00,92.0,73.5,29.87,SE,128,4.0,4.0,55,0.00,,,0.00,Wunderground v.1.15,2013-06-14 00:10:00,
2013-06-13 19:15:00,91.7,73.8,29.87,SE,130,4.0,5.0,56,0.00,,,0.00,Wunderground v.1.15,2013-06-14 00:15:00,
2013-06-13 19:25:00,91.3,73.4,29.86,ESE,107,4.0,4.0,56,0.00,,,0.00,Wunderground v.1.15,2013-06-14 00:25:00,
2013-06-13 19:30:00,91.3,73.9,29.86,SSE,151,3.0,4.0,57,0.00,,,0.00,Wunderground v.1.15,2013-06-14 00:30:00,
2013-06-13 19:35:00,91.0,73.7,29.86,ESE,110,3.0,4.0,57,0.00,,,0.00,Wunderground v.1.15,2013-06-14 00:35:00,
2013-06-13 19:45:00,91.0,74.2,29.86,ESE,116,2.0,4.0,58,0.00,,,0.00,Wunderground v.1.15,2013-06-14 00:45:00,
2013-06-13 19:55:00,90.3,74.0,29.86,SE,140,3.0,3.0,59,0.00,,,0.00,Wunderground v.1.15,2013-06-14 00:55:00,
2013-06-13 20:00:00,90.0,74.2,29.86,ESE,123,4.0,4.0,60,0.00,,,0.00,Wunderground v.1.15,2013-06-14 01:00:00,
2013-06-13 20:05:00,89.7,74.5,29.87,SE,131,4.0,4.0,61,0.00,,,0.00,Wunderground v.1.15,2013-06-14 01:05:00,
2013-06-13 20:15:00,89.6,74.4,29.87,SE,130,2.0,4.0,61,0.00,,,0.00,Wunderground v.1.15,2013-06-14 01:15:00,
2013-06-13 20:20:00,89.3,74.6,29.87,SE,131,2.0,2.0,62,0.00,,,0.00,Wunderground v.1.15,2013-06-14 01:20:00,
2013-06-13 20:25:00,88.9,74.7,29.87,SE,131,3.0,3.0,63,0.00,,,0.00,Wunderground v.1.15,2013-06-14 01:25:00,
2013-06-13 20:35:00,88.6,74.9,29.87,ESE,123,2.0,2.0,64,0.00,,,0.00,Wunderground v.1.15,2013-06-14 01:35:00,
2013-06-13 20:45:00,88.0,74.8,29.88,SE,130,2.0,2.0,65,0.00,,,0.00,Wunderground v.1.15,2013-06-14 01:45:00,
2013-06-13 20:50:00,87.8,75.0,29.88,SE,130,2.0,2.0,66,0.00,,,0.00,Wunderground v.1.15,2013-06-14 01:50:00,
2013-06-13 20:55:00,87.5,74.7,29.88,SE,130,3.0,3.0,66,0.00,,,0.00,Wunderground v.1.15,2013-06-14 01:55:00,
2013-06-13 21:00:00,87.3,75.0,29.88,SE,130,3.0,3.0,67,0.00,,,0.00,Wunderground v.1.15,2013-06-14 02:00:00,
2013-06-13 21:05:00,87.1,74.8,29.88,SE,129,2.0,3.0,67,0.00,,,0.00,Wunderground v.1.15,2013-06-14 02:05:00,
2013-06-13 21:15:00,86.6,74.8,29.89,SE,129,3.0,3.0,68,0.00,,,0.00,Wunderground v.1.15,2013-06-14 02:15:00,
2013-06-13 21:20:00,86.3,74.5,29.89,SE,129,2.0,4.0,68,0.00,,,0.00,Wunderground v.1.15,2013-06-14 02:20:00,
2013-06-13 21:25:00,86.2,74.8,29.89,SE,129,2.0,4.0,69,0.00,,,0.00,Wunderground v.1.15,2013-06-14 02:25:00,
2013-06-13 21:30:00,86.1,74.3,29.89,SE,130,2.0,3.0,68,0.00,,,0.00,Wunderground v.1.15,2013-06-14 02:30:00,
2013-06-13 21:35:00,85.9,74.5,29.89,SE,129,3.0,3.0,69,0.00,,,0.00,Wunderground v.1.15,2013-06-14 02:35:00,
2013-06-13 21:40:00,85.7,74.4,29.89,SE,129,2.0,2.0,69,0.00,,,0.00,Wunderground v.1.15,2013-06-14 02:40:00,
2013-06-13 21:45:00,85.6,74.7,29.90,SE,129,1.0,2.0,70,0.00,,,0.00,Wunderground v.1.15,2013-06-14 02:45:00,
2013-06-13 21:55:00,85.4,74.5,29.90,SE,129,2.0,2.0,70,0.00,,,0.00,Wunderground v.1.15,2013-06-14 02:55:00,
2013-06-13 22:00:00,85.2,74.7,29.90,SE,129,2.0,2.0,71,0.00,,,0.00,Wunderground v.1.15,2013-06-14 03:00:00,
2013-06-13 22:10:00,84.8,74.3,29.91,SE,129,1.0,2.0,71,0.00,,,0.00,Wunderground v.1.15,2013-06-14 03:10:00,
2013-06-13 22:15:00,84.7,74.3,29.91,ESE,111,2.0,2.0,71,0.00,,,0.00,Wunderground v.1.15,2013-06-14 03:15:00,
2013-06-13 22:20:00,84.6,74.2,29.91,ESE,110,1.0,3.0,71,0.00,,,0.00,Wunderground v.1.15,2013-06-14 03:20:00,
2013-06-13 22:25:00,84.5,74.1,29.91,ESE,112,2.0,3.0,71,0.00,,,0.00,Wunderground v.1.15,2013-06-14 03:25:00,